| time (UTC) | temp F | wind direction | speed MPH | gust MPH | rain 1hr in | rain 24hr in | rain mn in | humidity % | barometer mb |
| 20260503211836 | 50 | 2.0 | 0.0 | 0.00 | 0.00 | 0.00 | 67 | 1019.0 | |
| 20260503210335 | 50 | 2.0 | 0.0 | 0.00 | 0.00 | 0.00 | 67 | 1019.0 | |
| 20260503204842 | 50 | 40 | 3.0 | 0.0 | 0.00 | 0.00 | 0.00 | 67 | 1019.0 |
| 20260503203454 | 50 | 40 | 3.0 | 0.0 | 0.00 | 0.00 | 0.00 | 67 | 1019.0 |
| 20260503201835 | 50 | 10 | 2.0 | 0.0 | 0.00 | 0.00 | 0.00 | 67 | 1019.0 |
| 20260503200345 | 50 | 10 | 2.0 | 0.0 | 0.00 | 0.00 | 0.00 | 67 | 1019.0 |
| 20260503194901 | 54 | 2.0 | 0.0 | 0.00 | 0.00 | 0.00 | 58 | 1019.0 | |
| 20260503193455 | 54 | 2.0 | 0.0 | 0.00 | 0.00 | 0.00 | 58 | 1019.0 | |
| 20260503191835 | 55 | 2.0 | 0.0 | 0.00 | 0.00 | 0.00 | 55 | 1018.0 | |
| 20260503190335 | 55 | 2.0 | 0.0 | 0.00 | 0.00 | 0.00 | 55 | 1018.0 | |
| 20260503184954 | 55 | 2.0 | 0.0 | 0.00 | 0.00 | 0.00 | 59 | 1018.0 | |
| 20260503183335 | 55 | 2.0 | 0.0 | 0.00 | 0.00 | 0.00 | 59 | 1018.0 | |
| 20260503181835 | 59 | 350 | 5.0 | 0.0 | 0.00 | 0.00 | 0.00 | 51 | 1018.0 |
| 20260503180335 | 59 | 350 | 5.0 | 0.0 | 0.00 | 0.00 | 0.00 | 51 | 1018.0 |
| 20260503174855 | 64 | 290 | 3.0 | 0.0 | 0.00 | 0.00 | 0.00 | 37 | 1018.0 |
| 20260503173400 | 64 | 290 | 3.0 | 0.0 | 0.00 | 0.00 | 0.00 | 37 | 1018.0 |
| 20260503171835 | 66 | 280 | 6.0 | 0.0 | 0.00 | 0.00 | 0.00 | 35 | 1018.0 |
| 20260503170336 | 66 | 280 | 6.0 | 0.0 | 0.00 | 0.00 | 0.00 | 35 | 1018.0 |
| 20260503150335 | 70 | 270 | 11.0 | 0.0 | 0.00 | 0.00 | 0.00 | 31 | 1018.0 |
| 20260503130336 | 68 | 240 | 8.0 | 0.0 | 0.00 | 0.00 | 0.00 | 30 | 1020.0 |
| 20260503110356 | 64 | 240 | 6.0 | 0.0 | 0.00 | 0.00 | 0.00 | 32 | 1021.0 |
| 20260503090356 | 61 | 230 | 6.0 | 0.0 | 0.00 | 0.00 | 0.00 | 36 | 1023.0 |
| 20260503080346 | 59 | 3.0 | 0.0 | 0.00 | 0.00 | 0.00 | 36 | 1023.0 | |
| 20260503071834 | 57 | 3.0 | 0.0 | 0.00 | 0.00 | 0.00 | 36 | 1023.0 | |
| 20260503070336 | 57 | 3.0 | 0.0 | 0.00 | 0.00 | 0.00 | 36 | 1023.0 | |
| 20260503060335 | 54 | 90 | 3.0 | 0.0 | 0.00 | 0.00 | 0.00 | 51 | 1023.0 |
| 20260503054835 | 50 | 80 | 6.0 | 0.0 | 0.00 | 0.00 | 0.00 | 58 | 1023.0 |
| 20260503053335 | 50 | 80 | 6.0 | 0.0 | 0.00 | 0.00 | 0.00 | 58 | 1023.0 |
| 20260503051835 | 50 | 60 | 3.0 | 0.0 | 0.00 | 0.00 | 0.00 | 58 | 1023.0 |
| 20260503050335 | 50 | 60 | 3.0 | 0.0 | 0.00 | 0.00 | 0.00 | 58 | 1023.0 |
| 20260503044835 | 48 | 0 | 0.0 | 0.0 | 0.00 | 0.00 | 0.00 | 62 | 1023.0 |
| 20260503043336 | 48 | 0 | 0.0 | 0.0 | 0.00 | 0.00 | 0.00 | 62 | 1023.0 |
| 20260503041835 | 43 | 0 | 0.0 | 0.0 | 0.00 | 0.00 | 0.00 | 71 | 1023.0 |
| 20260503040358 | 43 | 0 | 0.0 | 0.0 | 0.00 | 0.00 | 0.00 | 71 | 1023.0 |
| 20260503034837 | 41 | 0 | 0.0 | 0.0 | 0.00 | 0.00 | 0.00 | 76 | 1023.0 |
| 20260503033335 | 41 | 0 | 0.0 | 0.0 | 0.00 | 0.00 | 0.00 | 76 | 1023.0 |
| 20260503031835 | 39 | 10 | 1.0 | 0.0 | 0.00 | 0.00 | 0.00 | 81 | 1023.0 |
| 20260503030335 | 39 | 10 | 1.0 | 0.0 | 0.00 | 0.00 | 0.00 | 81 | 1023.0 |
| 20260503024850 | 43 | 350 | 3.0 | 0.0 | 0.00 | 0.00 | 0.00 | 71 | 1023.0 |
| 20260503023335 | 43 | 350 | 3.0 | 0.0 | 0.00 | 0.00 | 0.00 | 71 | 1023.0 |
| 20260503021835 | 43 | 10 | 5.0 | 0.0 | 0.00 | 0.00 | 0.00 | 71 | 1023.0 |
| 20260503020335 | 43 | 10 | 5.0 | 0.0 | 0.00 | 0.00 | 0.00 | 71 | 1023.0 |
| 20260503014835 | 41 | 30 | 5.0 | 0.0 | 0.00 | 0.00 | 0.00 | 76 | 1022.0 |
| 20260503013335 | 41 | 30 | 5.0 | 0.0 | 0.00 | 0.00 | 0.00 | 76 | 1022.0 |
| 20260503011835 | 41 | 2.0 | 0.0 | 0.00 | 0.00 | 0.00 | 76 | 1022.0 | |
| 20260503010335 | 41 | 2.0 | 0.0 | 0.00 | 0.00 | 0.00 | 76 | 1022.0 | |
| 20260503004835 | 43 | 70 | 5.0 | 0.0 | 0.00 | 0.00 | 0.00 | 66 | 1022.0 |
| 20260503003335 | 43 | 70 | 5.0 | 0.0 | 0.00 | 0.00 | 0.00 | 66 | 1022.0 |
| 20260503001835 | 43 | 70 | 3.0 | 0.0 | 0.00 | 0.00 | 0.00 | 71 | 1022.0 |
| 20260503000335 | 43 | 70 | 3.0 | 0.0 | 0.00 | 0.00 | 0.00 | 71 | 1022.0 |
| 20260502234835 | 45 | 80 | 3.0 | 0.0 | 0.00 | 0.00 | 0.00 | 61 | 1022.0 |
| 20260502233335 | 45 | 80 | 3.0 | 0.0 | 0.00 | 0.00 | 0.00 | 61 | 1022.0 |
| 20260502231836 | 46 | 0 | 0.0 | 0.0 | 0.00 | 0.00 | 0.00 | 62 | 1022.0 |
| 20260502230336 | 46 | 0 | 0.0 | 0.0 | 0.00 | 0.00 | 0.00 | 62 | 1022.0 |
| 20260502224835 | 50 | 60 | 6.0 | 0.0 | 0.00 | 0.00 | 0.00 | 50 | 1022.0 |
| 20260502223335 | 50 | 60 | 6.0 | 0.0 | 0.00 | 0.00 | 0.00 | 50 | 1022.0 |
| 20260502221835 | 48 | 90 | 5.0 | 0.0 | 0.00 | 0.00 | 0.00 | 58 | 1022.0 |
| 20260502220335 | 48 | 90 | 5.0 | 0.0 | 0.00 | 0.00 | 0.00 | 58 | 1022.0 |
| 20260502214835 | 48 | 1.0 | 0.0 | 0.00 | 0.00 | 0.00 | 58 | 1022.0 | |
| 20260502213336 | 48 | 1.0 | 0.0 | 0.00 | 0.00 | 0.00 | 58 | 1022.0 |